SPACEMOBILE-004

Last updated on Mon Sep 21 2026 00:02:09 GMT+0000 (Coordinated Universal Time)

1 61049U 24163E 26263.33515109 .00010934 00000+0 50772-3 0 9992 2 61049 52.9770 231.4761 0008887 66.7129 293.4800 15.20494620112247
UTC large
Height (km)
Speed (km/s)
/
Latitude / Longitude
Inclination (degrees)
Orbital Period (minutes)
Azimuth
Elevation
Range (km)
Doppler Factor

Next 0 passes for location: London (51.5072 / 0.1276)

No passes found over London.
SPACEMOBILE-004